Tracking 29892 objects as of 21-Nov-2024
HD Live streaming from Space Station
objects crossing your sky now

STARLINK-30424

Track STARLINK-30424 now!
10-day predictions
STARLINK-30424 is classified as:


NORAD ID: 57857
Int'l Code: 2023-141T
Perigee: 469.6 km
Apogee: 471.1 km
Inclination: 53.2 °
Period: 93.9 minutes
Semi major axis: 6841 km
RCS: Unknown
Launch date: September 12, 2023
Source: United States (US)
Launch site: AIR FORCE WESTERN TEST RANGE (AFWTR)
Your satellite tracking list
Your tracking list is empty




NASA's NSSDC Master Catalog

Two Line Element Set (TLE):
1 57857U 23141T   24324.25875277  .00003496  00000-0  11518-3 0  9992
2 57857  53.1601 320.2405 0001152  83.6619 276.4515 15.34226222 67718
Source of the keplerian elements: AFSPC